FENGYUN 1C DEB

Satellite information

Favourite Embed

Satellite Type and Status

DEBRISIN ORBIT

Key statistics

Satellite FENGYUN 1C DEB at a glance.

Uptime

9667

Days in orbit

Revolutions

≈ 14.2

Per day

Orbit

SSO

Sun Synchronous Orbit

Inclination

99.2

Latest

Satellite identification and parameters

Extended collection of information and parameters for FENGYUN 1C DEB.

Object identification

Identified? True

Debris? True

Object name: FENGYUN 1C DEB

International designator: 1999-025RG

Object number (NORAD): 30103

Object ID (CCSDS): 30103

Country: PEOPLES REPUBLIC OF CHINA (PRC)

Current information (Y/N): Y

RCS size: SMALL

Orbital parameters

Period: 101.073 minutes

Inclination: 99.2404 deg

SMA: 7187.578 km

Apoapsis: 854.267 km

Periapsis: 764.618 km

RAAN: 278.9357 deg

Eccentricy: 0.00623638

Argument of periapsis: 254.1312 deg

Mean anomaly: 173.2084 deg

Mean motion: 14.24718099 rev/day

Mean motion (dot): 0.00001474 rev/day2

B* drag term: 0.00064113154 1/REarth

Two-line elements (TLE)

Creation date: Oct. 27, 2025, 2:46 a.m.

Reference frame: TEME

Reference center: EARTH

Epoch: Oct. 26, 2025, 9:39 p.m. UTC

TLE line 0: 0 FENGYUN 1C DEB

TLE line 1: 1 30103U 99025RG 25299.90223156 .00001474 00000-0 64113-3 0 9991

TLE line 2: 2 30103 99.2404 278.9357 0062364 254.1312 173.2084 14.24718099972522

Live tracking on map

Real-time ground track for satellite FENGYUN 1C DEB.

In-orbit conjunctions

A list of the most updated potential collisions computed for object FENGYUN 1C DEB.

Target Orbit TCA Probability of collision Miss distance Type
SL-3 R/B LEO 2024-10-04 03:15:30 0.0001116869 986.0 (m) ROCKET BODY
FENGYUN 1C DEB SSO 2024-08-04 18:09:41 0.000145441 268.0 (m) DEBRIS
FENGYUN 1C DEB SSO 2024-06-13 12:08:20 0.0001579775 84.0 (m) DEBRIS

Associated space launch

Chinese polar orbiting meteorological satellite

FENGYUN 1C DEB was lifted into orbit during the mission ‘Long March 4B | Feng Yun 1C’, on board a Long March 4B space rocket.

The launch took place on May 10, 1999, 1:33 a.m. from Launch Complex 7.

For more information about the launch, click the button.

Launch to space Long March 4B | Feng Yun 1C
Long March 4B | Feng Yun 1C

Agency: N/A

Status: Launch Successful

Launch date: May 10, 1999, 1:33 a.m. UTC

Rocket: Long March 4B

Launch pad: Launch Complex 7

Location: Taiyuan Satellite Launch Center, People's Republic of China

...

Latest news about this satellite

There are no fresh news available about this satellite. Check back as we update our databases every day.


Newsletter sign-up

Weekly statistics, charts and insights to help you stay on top of the space industry.